Total_Precipitation_Accumulation
1.46 1.51 2.31 3.59 4.20 3.53 2.95 2.25 1.44 1.45 1.24 0.84 0.68 0.78 1.24 1.87 2.30 2.73 2.80 2.34 1.60 1.38 1.52 2.27 3.12 2.98 2.81 2.93 3.07 3.07 3.00 2.94 2.89 2.70 2.47 2.33 2.11 2.01 2.05 2.04 1.97 1.80 1.75 1.67 1.86 2.23 2.53 2.70 2.55
1.32 2.13 3.16 4.27 3.92 3.15 2.99 2.19 1.62 1.23 0.81 0.58 0.55 0.64 0.92 1.06 1.02 1.67 2.83 2.60 1.53 1.28 1.39 1.73 2.89 3.01 2.88 2.99 3.04 2.90 2.76 2.61 2.44 2.40 2.34 2.21 2.14 2.01 1.98 1.99 1.99 1.83 1.76 1.72 1.85 2.17 2.30 2.38 2.32
1.69 2.68 3.69 3.86 2.95 2.81 2.82 1.99 1.42 0.76 0.51 0.55 0.63 0.62 0.84 1.16 1.25 1.90 2.50 1.95 1.36 1.20 1.34 1.83 2.74 2.86 2.81 2.78 2.80 2.84 2.65 2.47 2.23 2.09 2.12 2.05 2.04 1.91 1.92 1.96 1.87 1.77 1.76 1.68 1.74 2.01 2.20 2.39 2.26
2.03 2.91 3.21 2.85 2.43 1.96 1.66 1.51 1.02 0.82 0.64 0.42 0.52 0.70 0.69 1.06 1.36 1.69 1.63 1.36 1.23 1.23 1.31 1.76 2.44 2.62 2.67 2.60 2.57 2.52 2.36 2.20 2.10 1.97 2.02 2.04 2.00 1.91 1.86 1.79 1.78 1.77 1.79 1.74 1.69 1.81 2.11 2.43 2.35
2.37 2.95 2.85 2.31 2.23 1.70 1.27 1.11 0.87 0.98 0.88 0.55 0.48 0.73 0.94 1.24 1.34 1.43 1.38 1.22 1.26 1.31 1.26 1.59 2.22 2.35 2.47 2.43 2.26 2.23 2.21 2.06 1.98 1.92 1.82 1.84 1.87 1.89 1.85 1.86 1.86 1.77 1.78 1.83 1.78 1.86 1.94 2.16 2.26
2.55 2.65 2.57 2.33 2.36 1.93 1.58 1.16 0.91 0.98 0.80 0.56 0.52 0.78 1.14 1.42 1.51 1.44 1.32 1.38 1.36 1.34 1.24 1.37 1.92 2.19 2.25 2.21 2.19 2.17 2.11 1.99 1.87 1.74 1.67 1.70 1.73 1.70 1.64 1.67 1.72 1.68 1.65 1.73 1.71 1.77 1.74 1.77 1.97
2.80 2.66 2.27 1.94 2.22 2.46 1.85 1.16 1.05 1.06 0.96 0.71 0.53 0.88 1.22 1.47 1.50 1.28 1.23 1.51 1.63 1.57 1.42 1.32 1.46 1.70 1.91 2.14 2.20 2.27 2.25 2.18 2.01 1.79 1.67 1.69 1.66 1.52 1.45 1.57 1.67 1.72 1.75 1.86 1.85 1.88 1.81 1.77 1.94
2.22 2.32 1.92 1.94 2.29 2.55 1.76 1.14 0.92 0.92 0.94 0.62 0.58 0.97 1.36 1.35 1.34 1.29 1.23 1.41 1.48 1.51 1.47 1.38 1.41 1.49 1.60 1.82 2.13 2.42 2.52 2.58 2.29 1.91 1.77 1.67 1.53 1.46 1.52 1.58 1.71 1.88 2.01 2.17 2.21 2.11 1.94 1.92 1.98
2.12 2.51 2.35 2.41 2.38 1.99 1.33 1.21 0.91 0.72 0.77 0.73 0.60 0.66 0.87 0.84 0.92 1.13 1.22 1.23 1.16 1.12 1.18 1.23 1.31 1.43 1.51 1.60 1.74 2.21 2.44 2.58 2.21 1.74 1.75 1.62 1.44 1.36 1.50 1.59 2.04 2.17 2.26 2.49 2.60 2.40 2.14 1.94 1.88
2.24 2.41 2.17 1.79 1.55 1.39 1.24 1.13 0.89 0.95 1.10 0.99 0.83 0.74 0.75 0.81 0.93 1.04 1.05 1.05 0.98 0.95 0.89 0.90 0.92 1.02 1.22 1.34 1.65 2.02 2.08 2.19 1.84 1.61 1.60 1.56 1.64 1.58 1.33 1.50 2.03 2.28 2.37 2.23 2.25 2.33 2.04 1.67 1.42
1.71 1.82 1.43 1.15 0.90 0.93 0.98 0.90 0.73 0.92 1.18 0.91 0.79 0.78 0.80 0.87 0.89 0.95 0.94 0.83 0.77 0.72 0.72 0.71 0.75 0.79 0.99 1.34 1.64 1.91 2.06 2.13 2.09 2.02 1.77 1.75 1.65 1.46 1.32 1.37 1.48 1.62 1.72 1.61 1.67 1.75 1.58 1.49 1.34
1.54 1.32 1.09 1.03 0.80 0.84 0.82 0.75 0.81 0.77 0.77 0.60 0.56 0.62 0.80 0.92 0.88 0.82 0.85 0.82 0.74 0.74 0.77 0.70 0.62 0.70 0.87 1.06 1.29 1.65 1.89 1.96 1.92 1.83 1.51 1.55 1.61 1.46 1.42 1.54 1.66 1.64 1.67 1.82 1.79 1.78 1.68 1.51 1.31
1.49 1.24 0.96 0.76 0.73 0.74 0.77 0.78 0.77 0.69 0.56 0.51 0.52 0.62 0.81 0.93 0.92 0.81 0.74 0.71 0.73 0.83 0.93 0.89 0.74 0.72 0.83 0.97 1.02 1.21 1.46 1.54 1.79 1.83 1.43 1.29 1.35 1.46 1.47 1.39 1.60 1.71 1.76 1.84 1.86 1.80 1.69 1.65 1.47
1.31 1.07 0.90 0.80 0.77 0.72 0.81 0.80 0.75 0.81 0.61 0.56 0.61 0.73 0.84 0.92 0.91 0.79 0.70 0.63 0.61 0.68 0.82 0.89 0.90 0.91 0.93 0.94 0.94 0.97 1.02 1.16 1.31 1.34 1.16 1.11 1.14 1.29 1.50 1.40 1.41 1.54 1.75 1.88 1.89 1.83 1.89 1.85 1.63
0.92 1.00 1.10 1.00 0.92 0.84 0.92 1.14 0.85 0.71 0.62 0.60 0.64 0.74 0.74 0.77 0.75 0.66 0.61 0.52 0.50 0.57 0.67 0.79 0.86 0.92 0.99 1.09 1.10 1.00 0.98 1.11 1.14 1.08 1.08 1.10 1.08 1.21 1.46 1.40 1.31 1.33 1.49 1.69 1.94 2.01 2.02 1.80 1.71
1.12 1.21 1.56 1.18 1.07 0.98 1.13 1.30 0.79 0.68 0.66 0.63 0.64 0.77 0.74 0.64 0.56 0.52 0.55 0.52 0.51 0.57 0.61 0.69 0.67 0.78 0.93 1.11 1.21 1.19 1.15 1.21 1.17 1.02 0.97 0.95 0.95 1.00 1.27 1.37 1.28 1.27 1.46 1.73 2.01 2.22 2.26 2.06 2.02
1.51 1.46 1.39 1.22 1.05 0.94 0.91 0.96 0.72 0.62 0.59 0.60 0.62 0.72 0.73 0.58 0.50 0.46 0.45 0.50 0.58 0.62 0.61 0.63 0.67 0.70 0.76 0.93 1.07 1.10 1.10 1.15 1.12 1.06 1.03 0.94 0.89 0.94 1.20 1.44 1.47 1.46 1.64 1.78 1.80 2.07 2.23 2.33 2.24
1.16 1.02 1.03 1.00 0.88 0.83 0.78 0.71 0.64 0.55 0.54 0.59 0.62 0.67 0.65 0.50 0.43 0.41 0.43 0.52 0.64 0.72 0.69 0.71 0.71 0.67 0.69 0.74 0.88 0.99 0.97 1.00 1.08 1.04 1.07 1.09 1.12 1.14 1.37 1.63 1.66 1.74 1.84 1.95 2.18 2.46 2.48 2.40 2.43
0.87 0.83 0.84 0.74 0.60 0.66 0.72 0.73 0.68 0.64 0.58 0.59 0.59 0.55 0.57 0.51 0.46 0.40 0.41 0.46 0.59 0.65 0.64 0.67 0.73 0.69 0.65 0.62 0.71 0.82 0.88 0.99 1.10 1.19 1.29 1.28 1.26 1.32 1.56 1.75 1.99 2.13 2.03 2.06 2.34 2.65 2.75 2.54 2.39
0.90 0.93 0.88 0.79 0.63 0.65 0.70 0.74 0.67 0.63 0.59 0.52 0.48 0.46 0.50 0.45 0.41 0.37 0.41 0.45 0.48 0.54 0.54 0.59 0.62 0.61 0.55 0.52 0.59 0.73 0.87 0.99 1.16 1.37 1.62 1.54 1.40 1.42 1.45 1.72 1.92 2.01 2.15 2.19 2.29 2.62 2.96 2.72 2.43
0.81 0.77 0.72 0.81 0.75 0.76 0.85 0.91 0.76 0.67 0.62 0.53 0.47 0.50 0.53 0.50 0.43 0.38 0.39 0.46 0.43 0.45 0.52 0.56 0.59 0.59 0.59 0.64 0.82 1.13 1.43 1.60 1.67 1.72 1.98 2.02 1.85 1.78 1.74 1.78 1.90 1.99 2.20 2.37 2.39 2.47 2.85 2.90 2.62
0.87 0.62 0.56 0.72 0.97 0.97 0.84 1.03 0.73 0.65 0.70 0.58 0.53 0.49 0.51 0.52 0.53 0.48 0.43 0.47 0.41 0.44 0.54 0.60 0.60 0.68 0.69 0.82 1.14 1.59 1.94 2.10 2.08 2.16 2.26 2.37 2.28 2.10 2.11 2.11 2.21 2.15 2.15 2.26 2.24 2.24 2.51 2.87 2.90
0.83 0.68 0.71 0.79 0.90 0.86 0.63 0.73 0.64 0.64 0.73 0.62 0.58 0.54 0.53 0.48 0.49 0.52 0.52 0.53 0.52 0.54 0.60 0.69 0.77 0.91 1.09 1.21 1.38 1.71 1.89 1.96 2.10 2.26 2.52 2.73 2.79 2.74 2.70 2.61 2.44 2.24 2.19 2.26 2.30 2.31 2.43 2.57 2.74
0.67 0.82 0.96 0.97 0.99 0.95 0.52 0.52 0.57 0.57 0.56 0.59 0.62 0.64 0.60 0.53 0.48 0.50 0.58 0.62 0.61 0.72 0.81 0.86 1.03 1.14 1.19 1.33 1.44 1.56 1.65 1.79 2.02 2.20 2.45 2.63 2.68 2.74 2.69 2.50 2.21 2.04 2.01 2.10 2.27 2.29 2.37 2.39 2.47
0.67 0.97 1.35 1.45 1.33 0.92 0.42 0.45 0.51 0.40 0.36 0.40 0.46 0.47 0.47 0.50 0.51 0.55 0.59 0.66 0.69 0.76 0.92 1.03 1.13 1.26 1.26 1.34 1.44 1.46 1.54 1.69 1.86 1.93 1.98 2.02 2.02 2.10 2.12 2.11 2.07 1.97 1.87 1.95 2.18 2.27 2.33 2.33 2.32
0.57 0.71 1.13 1.35 1.11 0.77 0.47 0.56 0.52 0.33 0.27 0.24 0.28 0.34 0.40 0.52 0.57 0.61 0.62 0.74 0.82 0.89 1.01 1.16 1.25 1.32 1.35 1.41 1.47 1.45 1.55 1.69 1.78 1.72 1.67 1.74 1.76 1.83 1.87 1.92 1.96 1.91 1.85 1.86 1.99 2.12 2.22 2.22 2.17
0.56 0.57 0.64 0.82 0.67 0.67 0.54 0.48 0.40 0.25 0.22 0.21 0.28 0.40 0.51 0.57 0.63 0.69 0.72 0.82 0.90 0.98 1.08 1.20 1.36 1.42 1.47 1.47 1.51 1.62 1.69 1.70 1.67 1.54 1.49 1.55 1.48 1.44 1.55 1.67 1.77 1.73 1.71 1.72 1.87 2.01 2.03 2.11 2.20
0.44 0.56 0.71 0.84 0.90 0.82 0.55 0.48 0.45 0.33 0.30 0.32 0.37 0.47 0.62 0.72 0.76 0.81 0.90 0.97 1.03 1.05 1.17 1.26 1.39 1.53 1.50 1.47 1.59 1.78 1.75 1.52 1.37 1.24 1.24 1.27 1.30 1.34 1.36 1.32 1.35 1.35 1.40 1.43 1.53 1.70 1.78 1.80 1.89
0.44 0.48 0.63 0.75 0.72 0.92 0.99 0.92 0.72 0.68 0.57 0.61 0.64 0.72 0.90 0.96 0.98 0.97 1.03 1.11 1.10 1.13 1.22 1.27 1.38 1.55 1.58 1.47 1.57 1.60 1.41 1.16 1.04 1.03 1.04 1.04 1.04 1.06 1.07 0.99 1.01 1.11 1.13 1.09 1.19 1.30 1.37 1.47 1.57
0.35 0.37 0.45 0.74 0.73 0.73 1.06 1.06 0.86 0.90 0.90 1.02 1.09 1.24 1.19 1.16 1.19 1.10 1.07 1.09 1.03 1.04 1.13 1.23 1.36 1.45 1.38 1.34 1.32 1.14 0.96 0.86 0.82 0.79 0.77 0.77 0.82 0.81 0.81 0.78 0.77 0.87 0.99 1.01 1.10 1.18 1.17 1.26 1.39